E3980 Weather Reports


time (UTC)temp
C
wind
direction
speed
KPH
gust
KPH
rain 1hr
cm
rain 24hr
cm
rain mn
cm
humidity
%
barometer
mb
20260504081807 5 185 1.6 3.2 0.00 0.00 0.00 92 977.9
20260504081301 5 191 1.6 4.8 0.00 0.00 0.00 92 978.0
20260504080755 5 157 1.6 4.8 0.00 0.00 0.00 92 977.9
20260504080249 5 174 1.6 3.2 0.00 0.00 0.00 92 977.9
20260504070137 6 176 1.6 4.8 0.00 0.00 0.00 91 978.3
20260504050513 6 298 0.0 0.0 0.00 0.00 0.00 91 979.0
20260504050013 6 298 0.0 0.0 0.00 0.00 0.00 91 979.0
20260504045507 6 298 0.0 1.6 0.00 0.00 0.00 91 979.1
20260504045001 6 298 0.0 1.6 0.00 0.00 0.00 91 979.1
20260504044455 6 298 0.0 0.0 0.00 0.00 0.00 91 979.2
20260504043949 6 298 0.0 0.0 0.00 0.00 0.00 91 979.2
20260504042937 6 298 0.0 0.0 0.00 0.00 0.00 91 979.1
20260504042430 6 298 0.0 0.0 0.00 0.00 0.00 91 979.1
20260504041924 6 298 0.0 0.0 0.00 0.00 0.00 90 979.1
20260504040916 6 298 0.0 1.6 0.00 0.00 0.00 90 979.2
20260504040406 6 298 0.0 1.6 0.00 0.00 0.00 90 979.2
20260504035901 7 298 0.0 1.6 0.00 0.00 0.00 90 979.2
20260504034849 7 298 0.0 0.0 0.00 0.00 0.00 90 979.2
20260504034343 7 298 0.0 0.0 0.00 0.00 0.00 90 979.3
20260504033837 7 298 0.0 1.6 0.00 0.00 0.00 90 979.3
20260504033331 7 298 0.0 1.6 0.00 0.00 0.00 89 979.3
20260504032825 7 298 0.0 0.0 0.00 0.00 0.00 89 979.2
20260504032318 7 298 0.0 0.0 0.00 0.00 0.00 89 979.3
20260504031813 7 298 0.0 0.0 0.00 0.00 0.00 88 979.3
20260504031308 7 298 0.0 1.6 0.00 0.00 0.00 87 979.3
20260504030801 7 298 0.0 1.6 0.00 0.00 0.00 88 979.3
20260504030255 7 298 0.0 0.0 0.00 0.00 0.00 87 979.3
20260504025750 7 298 0.0 0.0 0.00 0.00 0.00 87 979.5
20260504025243 7 298 0.0 1.6 0.00 0.00 0.00 87 979.5
20260504024737 7 298 0.0 1.6 0.00 0.00 0.00 85 979.5
20260504024231 7 298 0.0 1.6 0.00 0.00 0.00 85 979.5
20260504022713 8 298 0.0 1.6 0.00 0.00 0.00 83 979.4
20260504022207 8 298 0.0 1.6 0.00 0.00 0.00 82 979.4
20260504021701 8 298 0.0 0.0 0.00 0.00 0.00 81 979.3
20260504021155 8 298 0.0 0.0 0.00 0.00 0.00 81 979.4
20260504020143 8 298 0.0 0.0 0.00 0.00 0.00 80 979.2
20260504015637 9 298 0.0 0.0 0.00 0.00 0.00 78 979.1
20260504015131 9 298 0.0 0.0 0.00 0.00 0.00 77 979.0
20260504014625 10 298 0.0 0.0 0.00 0.00 0.00 77 979.0
20260504014120 10 298 0.0 0.0 0.00 0.00 0.00 75 979.0
20260504013613 10 298 0.0 0.0 0.00 0.00 0.00 74 979.0
20260504013108 10 298 0.0 0.0 0.00 0.00 0.00 73 979.1
20260504012608 10 298 0.0 0.0 0.00 0.00 0.00 72 979.0
20260504012108 11 298 0.0 0.0 0.00 0.00 0.00 72 978.9
20260504011609 11 298 0.0 0.0 0.00 0.00 0.00 72 978.9
20260504010608 11 298 0.0 0.0 0.00 0.00 0.00 69 978.8
20260504005607 12 298 0.0 0.0 0.00 0.00 0.00 67 978.7
20260504004607 12 298 0.0 0.0 0.00 0.00 0.00 65 978.6
20260504004109 13 298 0.0 0.0 0.00 0.00 0.00 65 978.6
20260504003607 13 298 0.0 1.6 0.00 0.00 0.00 61 978.5
20260504003104 14 298 0.0 1.6 0.00 0.00 0.00 59 978.5
20260504002605 15 298 0.0 1.6 0.00 0.00 0.00 57 978.6
20260504002104 15 298 0.0 1.6 0.00 0.00 0.00 56 978.6
20260504001605 16 298 0.0 1.6 0.00 0.00 0.00 53 978.5
20260504001105 17 298 0.0 1.6 0.00 0.00 0.00 49 978.6
20260504000606 18 298 0.0 3.2 0.00 0.00 0.00 46 978.5
20260504000100 18 298 1.6 4.8 0.00 0.00 0.00 47 978.6
20260503235059 18 292 1.6 4.8 0.00 0.00 0.00 44 978.7
20260503234558 18 317 1.6 4.8 0.00 0.00 0.00 44 978.8
20260503234057 18 299 1.6 4.8 0.00 0.00 0.00 42 978.8
20260503233057 18 339 3.2 11.3 0.00 0.00 0.00 43 978.9
20260503232555 18 300 4.8 11.3 0.00 0.00 0.00 43 978.9
20260503232055 18 267 4.8 9.7 0.00 0.00 0.00 44 978.9
20260503231557 18 332 4.8 9.7 0.00 0.00 0.00 43 978.9
20260503230555 19 280 3.2 8.0 0.00 0.00 0.00 40 979.1
20260503230052 19 303 3.2 9.7 0.00 0.00 0.00 40 979.1
20260503225049 18 306 4.8 11.3 0.00 0.00 0.00 40 979.1
20260503224046 18 329 8.0 16.1 0.00 0.00 0.00 41 979.1
20260503223546 18 320 6.4 16.1 0.00 0.00 0.00 42 979.2
20260503223047 19 335 4.8 16.1 0.00 0.00 0.00 43 979.2
20260503222547 18 320 6.4 16.1 0.00 0.00 0.00 40 979.2
20260503222046 18 306 6.4 14.5 0.00 0.00 0.00 42 979.2
20260503221545 18 340 6.4 14.5 0.00 0.00 0.00 41 979.2
20260503221046 18 334 6.4 17.7 0.00 0.00 0.00 38 979.3
20260503220547 18 287 6.4 17.7 0.00 0.00 0.00 40 979.2
20260503220046 19 319 3.2 14.5 0.00 0.00 0.00 39 979.2
20260503214546 18 307 6.4 19.3 0.00 0.00 0.00 40 979.4
20260503213547 18 275 8.0 16.1 0.00 0.00 0.00 44 979.6
20260503213047 18 333 6.4 16.1 0.00 0.00 0.00 39 979.7
20260503212046 18 335 8.0 17.7 0.00 0.00 0.00 42 979.6
20260503211547 18 309 6.4 17.7 0.00 0.00 0.00 41 979.7
20260503211046 18 2 6.4 14.5 0.00 0.00 0.00 41 979.7
20260503210547 18 214 4.8 14.5 0.00 0.00 0.00 41 979.7
20260503210045 18 326 3.2 9.7 0.00 0.00 0.00 46 979.7
20260503205546 18 298 4.8 12.9 0.00 0.00 0.00 41 979.8
20260503205046 18 326 6.4 17.7 0.00 0.00 0.00 43 979.9
20260503204545 18 298 6.4 17.7 0.00 0.00 0.00 40 980.0
20260503204045 18 271 6.4 14.5 0.00 0.00 0.00 41 980.1
20260503203543 18 333 6.4 16.1 0.00 0.00 0.00 43 980.2
20260503203039 18 282 6.4 16.1 0.00 0.00 0.00 44 980.3
20260503202039 18 229 6.4 12.9 0.00 0.00 0.00 45 980.4
20260503201541 18 318 4.8 14.5 0.00 0.00 0.00 43 980.5
20260503201034 18 297 4.8 14.5 0.00 0.00 0.00 42 980.6
20260503200527 18 344 4.8 12.9 0.00 0.00 0.00 40 980.7
20260503200026 17 328 8.0 17.7 0.00 0.00 0.00 41 980.8
20260503195528 17 335 11.3 17.7 0.00 0.00 0.00 42 981.0
20260503195025 17 10 9.7 22.5 0.00 0.00 0.00 43 981.2
20260503194525 17 301 9.7 22.5 0.00 0.00 0.00 42 981.2
20260503194022 17 343 9.7 19.3 0.00 0.00 0.00 45 981.2
20260503193523 17 332 8.0 16.1 0.00 0.00 0.00 41 981.2
20260503192020 17 307 8.0 20.9 0.00 0.00 0.00 44 981.5
20260503191520 17 26 9.7 17.7 0.00 0.00 0.00 44 981.6
20260503191020 17 330 9.7 17.7 0.00 0.00 0.00 45 981.7
20260503190517 17 317 8.0 17.7 0.00 0.00 0.00 44 981.7
20260503190016 17 331 9.7 17.7 0.00 0.00 0.00 43 981.7
20260503185515 17 298 9.7 19.3 0.00 0.00 0.00 41 981.8
20260503184508 17 333 9.7 22.5 0.00 0.00 0.00 43 981.8
20260503184001 17 301 8.0 20.9 0.00 0.00 0.00 40 981.9
20260503183456 17 260 8.0 19.3 0.00 0.00 0.00 44 981.9
20260503182950 17 268 8.0 19.3 0.00 0.00 0.00 46 982.0
20260503182443 17 335 9.7 19.3 0.00 0.00 0.00 44 982.0
20260503181940 17 9 6.4 17.7 0.00 0.00 0.00 48 982.0
20260503180926 16 323 9.7 19.3 0.00 0.00 0.00 48 982.1
20260503180420 16 299 8.0 17.7 0.00 0.00 0.00 48 982.1
20260503175914 16 278 6.4 17.7 0.00 0.00 0.00 50 982.1
20260503175408 16 320 8.0 16.1 0.00 0.00 0.00 45 982.2
20260503174902 16 344 6.4 17.7 0.00 0.00 0.00 48 982.3
20260503174356 16 332 6.4 17.7 0.00 0.00 0.00 46 982.4
20260503173344 16 355 6.4 12.9 0.00 0.00 0.00 49 982.6
20260503172844 16 266 6.4 16.1 0.00 0.00 0.00 51 982.6
20260503172344 16 285 6.4 16.1 0.00 0.00 0.00 49 982.8
20260503171846 15 335 4.8 14.5 0.00 0.00 0.00 49 982.7
20260503171345 15 344 6.4 14.5 0.00 0.00 0.00 50 982.8
20260503170844 15 316 6.4 16.1 0.00 0.00 0.00 44 982.9
20260503150820 13 316 4.8 11.3 0.00 0.00 0.00 57 983.5
20260503150319 13 331 3.2 11.3 0.00 0.00 0.00 58 983.5
20260503140307 11 320 1.6 6.4 0.00 0.00 0.00 76 983.5
20260503131303 7 325 1.6 6.4 0.00 0.00 0.00 95 983.3
20260503130801 7 311 1.6 6.4 0.00 0.00 0.00 95 983.3
20260503130302 6 322 1.6 4.8 0.00 0.00 0.00 96 983.3
20260503110750 2 306 0.0 0.0 0.00 0.00 0.00 94 982.3